STARLINK-4706, 53779

Orbit data source: Space-Track

STARLINK-4706, 53779 is a payload satellite owned by SpaceX/Seattle (US) in LEO that was launched on Sun, 11 Sep 2022 UTC via an FALCON 9 launch vehicle from the Air Force Eastern Test Range (AFETR). Payload-class satellites include a variety of spacecraft equipped with specific instruments for various scientific and technological missions. These include communications satellites like Starlink; space stations such as the ISS; scientific satellites like the Hubble; Earth observation satellites from companies like Planet Labs, Umbra, and HawkEye 360; GPS; miniature CubeSats for education and research; and military/defense satellites.

Loading next visibility...
Identifier
53779, 2022-111G
Orbit
LEO
Country
Flag of USUS
Related business
Manufacturer
SpaceX/Seattle
Mission
Operational Commercial Communications
Bus & Motor
STARLINK, Unknown motor
Mass
305 kg wet, ~290 kg dry
Launch date (UTC)
2022-09-11 (4 years ago)
Launch vehicle
FALCON 9
Launch site
Air Force Eastern Test Range (AFETR)
Object type
Payload
Rocket body
Debris
Shape & HBR
Box + 1 Pan, 10.1 m
Radar Cross Section
13.562 m², Large (>1 m²)

Expand to show TLE details & history
Last TLE update: 19 hours ago

TLE from 19 hours ago
0 STARLINK-4706
1 53779U 22111G   26219.52685366 -.00000515  00000-0 -48347-5 0  9993
2 53779  53.1618 310.5563 0001117  79.7164 280.3964 15.31691951216556
Epoch: 2026-08-07T12:38Z
TLE epoch observation values (Epoch: 2026-08-07T12:38:40.156Z)
Latitude
0.00004°
Longitude
164.83774°
Altitude
471.526 km
Speed
7.632 km/s
True Right ascension
20h 42m 13s
True Declination
0° 00' 00"
Sunlit
Object was in full shadow at epoch
Visualization orbit readout
Latitude
Unknown
Longitude
Unknown
Altitude
Unknown
Speed
Unknown
Apparent Right ascension
Unknown
Apparent Declination
Unknown
Sunlit
N/A
Visualization observer readout
Local Sidereal Time
21:39:28
Azimuth
Unknown
Elevation
Unknown
Doppler factor
Unknown
Orbital elements
Apogee altitude
471.785 km
Perigee altitude
470.255 km
Semi-major axis
6,849.157 km
Eccentricity
0.00011
Inclination
53.1618°
RAAN
310.5563°
Arg. of periapsis
79.7164°
True anomaly
280.38381°
Mean anomaly
280.3964°
Eccentric anomaly
280.39011°
Mean motion
3.82902 °/min
Orbital period
94.02 mins
BSTAR
-0.0000048347
Loading maneuver chart data...
Computing Atmospheric mass density...
Loading historical data...
Loading historical data...
Loading historical data...
Loading historical data...
Loading historical data...
Loading historical data...
Loading historical data...

Documentation

Showing up to 5 results
|